[[{"header":{"parameterUnit":"m.s-1","parameterCategory":1,"la1":30.2991,"la2":30.254,"lo1":-89.0895,"lo2":-89.0444,"dy":0.0017,"dx":0.0017,"nx":28,"ny":28,"refTime":"2024-08-23T21:00:00:Z","depth":0,"parameterNumber":2,"parameterNumberName":"U-component_of_WINDS"},"data":[0,0,0,0,0,0,0,0,0,0,0,0,0,0,0,0,0,0,0,0,0,0,0,0,0,0,0,0,0,0,0,0,0,0,0,0,0,0,0,0,0,0,0,0,0,0,0,0,0,0,0,0,0,0,0,0,0,0,-4.88,-4.8799,0,-4.8748,-4.8748,-4.8747,-4.8583,-4.8579,-4.8576,-4.8572,-4.8524,-4.8526,-4.8529,0,0,0,0,0,0,0,0,0,0,0,0,0,-4.8761,-4.8762,-4.88,-4.8799,-4.8798,-4.8748,-4.8748,-4.8747,-4.8584,-4.8579,-4.8575,-4.8571,-4.8524,-4.8526,-4.8529,0,0,0,0,0,0,0,0,0,0,0,0,0,-4.8751,-4.8763,-4.88,-4.8711,-4.8702,-4.8749,-4.8748,-4.8747,-4.8585,-4.8579,-4.8574,-4.8568,-4.8523,-4.8526,-4.8529,-4.8659,0,0,-4.8539,-4.854,0,0,0,0,0,0,0,0,-4.8751,-4.8752,-4.8724,-4.8717,-4.8707,-4.8666,-4.8716,-4.8718,-4.8586,-4.8629,-4.8572,-4.8566,-4.8576,-4.8575,-4.8577,-4.8657,-4.8655,-4.8539,-4.8541,-4.8543,-4.8543,0,0,0,0,0,0,0,-4.8752,-4.8753,-4.8779,-4.8724,-4.8714,-4.8675,-4.8667,-4.8716,-4.8635,-4.8625,-4.8613,-4.8609,-4.8571,-4.8575,-4.8575,-4.8654,-4.8539,-4.8542,-4.8544,-4.8545,-4.8839,-4.8845,0,0,0,0,0,0,-4.8765,-4.8755,-4.8781,-4.8778,-4.8716,-4.868,-4.8672,-4.8685,-4.8633,-4.862,-4.8614,-4.8602,-4.8572,-4.8572,-4.8573,-4.8723,-4.8542,-4.8545,-4.8547,-4.8833,-4.8841,-4.8847,0,0,0,0,0,0,-4.8765,-4.8769,-4.8783,-4.8763,-4.8762,-4.8686,-4.8703,-4.8687,-4.8691,-4.8625,-4.861,-4.8633,-4.8568,-4.8568,-4.8639,-4.8719,-4.8547,-4.855,-4.8827,-4.8836,-4.8844,-4.9024,0,0,0,0,0,0,-4.8764,-4.877,-4.8817,-4.8765,-4.8764,-4.8849,-4.8708,-4.869,-4.8696,-4.868,-4.8638,-4.8626,-4.8563,-4.8635,-4.8642,-4.872,-4.8552,-4.8819,-4.8831,-4.8841,-4.9011,-4.9038,-4.9061,0,0,0,0,0,-4.8764,-4.887,-4.882,-4.8824,-4.8821,-4.8854,-4.8853,-4.8777,-4.8703,-4.8751,-4.8709,-4.8628,-4.8709,-4.8644,-4.865,-4.8731,-4.8814,-4.8827,-4.884,-4.8999,-4.9032,-4.9061,0,0,0,0,0,0,-4.8935,-4.8862,-4.8806,-4.8899,-4.8884,-4.8826,-4.8884,-4.8814,-4.8821,-4.8806,-4.8712,-4.8704,-4.8789,-4.8766,-4.8695,-4.8855,-4.8748,-4.8763,-4.8867,-4.8898,-4.8922,-4.8927,-4.8555,0,0,0,0,0,-4.8983,-4.9014,-4.8949,-4.9038,-4.9033,-4.8961,-4.8972,-4.8915,-4.8896,-4.8889,-4.8852,-4.8838,-4.8861,-4.8877,-4.8894,-4.9006,-4.8996,-4.9065,-4.909,-4.9111,-4.9126,-4.9186,-4.9217,-4.8891,-4.889,-4.889,0,0,-4.9084,-4.9048,-4.9073,-4.9071,-4.9053,-4.909,-4.8956,-4.9,-4.9027,-4.8896,-4.8961,-4.8933,-4.8912,-4.9005,-4.9043,-4.8988,-4.9214,-4.9128,-4.9145,-4.9149,-4.9203,-4.9234,-4.9261,-4.8899,-4.8898,-4.8896,0,0,-4.9286,-4.9261,-4.9333,-4.9317,-4.9291,-4.9242,-4.9259,-4.9213,-4.9189,-4.9252,-4.9155,-4.9187,-4.9226,-4.9216,-4.9216,-4.9416,-4.9342,-4.9424,-4.9557,-4.9617,-4.9642,-4.9665,-4.9739,-4.9766,-4.9439,-4.9439,-4.9439,0,-4.9415,-4.9464,-4.9379,-4.9429,-4.9432,-4.9314,-4.9388,-4.9377,-4.9359,-4.9364,-4.9302,-4.9351,-4.9328,-4.9418,-4.9467,-4.947,-4.9489,-4.9429,-4.9645,-4.9667,-4.9686,-4.9756,-4.9784,-4.9449,-4.9448,-4.9447,-4.9446,0,-4.9625,-4.9661,-4.9723,-4.9707,-4.9716,-4.9778,-4.9704,-4.9725,-4.9667,-4.9625,-4.9693,-4.9661,-4.967,-4.9687,-4.9631,-4.977,-4.9736,-4.9661,-4.9553,-4.9729,-4.9793,-4.9819,-4.9464,-4.946,-4.9457,-4.9455,0,0,-4.9934,-4.9871,-4.9895,-4.9887,-4.985,-4.9877,-4.9934,-4.9942,-4.9963,-4.9954,-5.0002,-5.0039,-4.9969,-4.997,-4.9911,-4.9964,-5.0127,-4.9882,-4.988,-4.9931,-5.0281,-5.0339,-5.0371,-5.0077,-5.0082,-5.0086,-5.0284,0,-5.0128,-5.0221,-5.0146,-5.0254,-5.0288,-5.0177,-5.0227,-5.0211,-5.0174,-5.0199,-5.0158,-5.0187,-5.0091,-5.0091,-5.0138,-5.0098,-5.0197,-5.0082,-5.0123,-5.0126,-5.0134,-5.0404,-5.0465,-5.0654,-5.0308,-5.0312,-5.0315,0,-5.0366,-5.0368,-5.0479,-5.0436,-5.0447,-5.0493,-5.0496,-5.052,-5.05,-5.047,-5.0471,-5.0399,-5.0455,-5.0347,-5.0424,-5.0347,-5.036,-5.0343,-5.0348,-5.0351,-5.0233,-5.0417,-5.0711,-5.0741,-5.0353,-5.035,-5.0347,0,-5.0584,-5.0613,-5.0684,-5.068,-5.0631,-5.0667,-5.0649,-5.0623,-5.0633,-5.0636,-5.0642,-5.0652,-5.0658,-5.0668,-5.0602,-5.0529,-5.0689,-5.0574,-5.0667,-5.0669,-5.0707,-5.0706,-5.1011,-5.0712,-5.0712,-5.0711,-5.0711,0,-5.0809,-5.0882,-5.0781,-5.0825,-5.0904,-5.0818,-5.09,-5.087,-5.0848,-5.0886,-5.079,-5.0828,-5.0738,-5.0767,-5.0716,-5.0789,-5.0791,-5.077,-5.0756,-5.078,-5.0783,-5.0789,-5.0775,-5.0718,-5.0717,-5.0715,-5.0714,0,-5.1066,-5.1001,-5.1071,-5.1019,-5.1007,-5.1069,-5.1025,-5.1064,-5.1021,-5.107,-5.1077,-5.101,-5.1039,-5.0973,-5.0994,-5.0959,-5.1064,-5.1028,-5.1071,-5.1061,-5.1158,-5.1151,-5.1479,-5.1519,-5.1193,-5.1196,-5.1199,0,-5.1214,-5.1268,-5.1222,-5.1239,-5.1226,-5.1256,-5.1266,-5.1184,-5.1199,-5.1181,-5.1224,-5.1245,-5.1258,-5.131,-5.1265,-5.128,-5.1246,-5.1359,-5.1248,-5.1271,-5.1251,-5.1249,-5.1255,-5.1384,-5.1387,-5.1391,-5.1393,0,-5.1487,-5.1452,-5.1469,-5.1477,-5.1491,-5.1493,-5.1488,-5.1508,-5.1421,-5.1443,-5.1471,-5.1481,-5.1502,-5.1526,-5.1531,-5.1514,-5.1441,-5.1429,-5.1451,-5.1478,-5.1501,-5.1492,-5.1136,-5.1422,-5.1419,-5.1417,-5.1415,-5.1414,-5.1695,-5.1739,-5.1713,-5.1736,-5.1724,-5.1722,-5.1757,-5.1718,-5.174,-5.175,-5.17,-5.1741,-5.1721,-5.1721,-5.1712,-5.1743,-5.1692,-5.1725,-5.1733,-5.1743,-5.176,-5.1494,-5.1744,-5.1743,-5.1742,-5.1741,-5.174,0,-5.1965,-5.1943,-5.1965,-5.1961,-5.198,-5.1907,-5.1899,-5.192,-5.1956,-5.1943,-5.1958,-5.1992,-5.2015,-5.1971,-5.1987,-5.2021,-5.1989,-5.2029,-5.2027,-5.2025,-5.1804,-5.1783,-5.2055,-5.2055,-5.2055,-5.2055,-5.2055,-5.2055,-5.2107,-5.2177,-5.214,-5.2204,-5.2182,-5.2219,-5.2221,-5.222,-5.221,-5.2252,-5.227,-5.224,-5.2216,-5.223,-5.2249,-5.2235,-5.2247,-5.23,-5.2275,-5.207,-5.204,-5.201,-5.1991,-5.2302,-5.2302,-5.2494,-5.2495,-5.2497]},{"header":{"parameterUnit":"m.s-1","parameterCategory":1,"la1":30.2991,"la2":30.254,"lo1":-89.0895,"lo2":-89.0444,"dy":0.0017,"dx":0.0017,"nx":28,"ny":28,"refTime":"2024-08-23T21:00:00:Z","depth":0,"parameterNumber":3,"parameterNumberName":"V-component_of_WINDS"},"data":[0,0,0,0,0,0,0,0,0,0,0,0,0,0,0,0,0,0,0,0,0,0,0,0,0,0,0,0,0,0,0,0,0,0,0,0,0,0,0,0,0,0,0,0,0,0,0,0,0,0,0,0,0,0,0,0,0,0,0.6696,0.6695,0,0.663,0.6629,0.6629,0.6662,0.6664,0.6666,0.6668,0.6591,0.6587,0.6584,0,0,0,0,0,0,0,0,0,0,0,0,0,0.6843,0.684,0.6696,0.6695,0.6694,0.663,0.6629,0.6628,0.6662,0.6664,0.6666,0.6668,0.6592,0.6588,0.6583,0,0,0,0,0,0,0,0,0,0,0,0,0,0.6778,0.6839,0.6696,0.6703,0.6704,0.663,0.6629,0.6628,0.6662,0.6664,0.6667,0.6669,0.6594,0.6588,0.6583,0.6496,0,0,0.6566,0.6563,0,0,0,0,0,0,0,0,0.6782,0.6773,0.6703,0.6703,0.6703,0.6657,0.6653,0.6583,0.6661,0.6677,0.6668,0.6671,0.661,0.6604,0.6585,0.6492,0.6489,0.6565,0.6562,0.656,0.6558,0,0,0,0,0,0,0,0.6786,0.6775,0.6669,0.6702,0.6702,0.6708,0.6701,0.664,0.6629,0.6676,0.6678,0.6671,0.6611,0.659,0.6584,0.6488,0.6566,0.6561,0.6557,0.6555,0.6318,0.6315,0,0,0,0,0,0,0.6791,0.6779,0.6672,0.6668,0.675,0.6703,0.6696,0.6669,0.663,0.6627,0.6668,0.6672,0.6598,0.659,0.6581,0.6474,0.656,0.6555,0.6551,0.6321,0.6318,0.6314,0,0,0,0,0,0,0.6794,0.6781,0.6674,0.6724,0.6711,0.6698,0.6667,0.6666,0.6646,0.6625,0.6622,0.665,0.66,0.6589,0.6517,0.6472,0.6552,0.6547,0.6325,0.632,0.6316,0.6262,0,0,0,0,0,0,0.6798,0.6782,0.6751,0.6723,0.6708,0.6613,0.6665,0.6663,0.6638,0.6642,0.6607,0.6603,0.6601,0.6525,0.6511,0.6466,0.6543,0.6328,0.6323,0.6317,0.6267,0.6256,0.6246,0,0,0,0,0,0.6804,0.6736,0.6749,0.6736,0.6669,0.6611,0.6602,0.6604,0.6634,0.66,0.6587,0.6604,0.6481,0.6517,0.6502,0.6455,0.6331,0.6324,0.6318,0.6272,0.6258,0.6246,0,0,0,0,0,0,0.6755,0.6732,0.6746,0.6669,0.6642,0.6617,0.6574,0.6589,0.655,0.6556,0.6558,0.6549,0.6474,0.6458,0.6499,0.6368,0.641,0.64,0.638,0.6367,0.6357,0.636,0.6538,0,0,0,0,0,0.6736,0.6693,0.6675,0.6608,0.6595,0.6587,0.6562,0.6566,0.6537,0.6525,0.6506,0.6474,0.6428,0.6398,0.6354,0.6267,0.6258,0.6227,0.6216,0.6208,0.6197,0.6148,0.6133,0.6292,0.6292,0.6293,0,0,0.6694,0.6677,0.6649,0.6598,0.6578,0.6531,0.6577,0.6525,0.6489,0.6516,0.6447,0.6432,0.6397,0.6317,0.6281,0.6301,0.6152,0.6199,0.6192,0.6186,0.6139,0.6124,0.6111,0.6288,0.6289,0.6289,0,0,0.6594,0.6578,0.652,0.65,0.647,0.6466,0.6452,0.6425,0.6417,0.6349,0.6368,0.6325,0.6246,0.622,0.6196,0.6089,0.6103,0.6075,0.6018,0.597,0.5957,0.5946,0.5904,0.589,0.6066,0.6066,0.6066,0,0.6545,0.6478,0.6487,0.6435,0.641,0.6437,0.6376,0.6355,0.6311,0.6292,0.6318,0.622,0.6198,0.6111,0.6085,0.6067,0.6048,0.6077,0.5959,0.5948,0.5937,0.5897,0.5882,0.6063,0.6063,0.6063,0.6064,0,0.6417,0.6371,0.6327,0.6287,0.6258,0.6202,0.6201,0.617,0.6178,0.6171,0.61,0.6076,0.6028,0.6009,0.6015,0.5922,0.5935,0.596,0.6001,0.5918,0.5881,0.5866,0.6058,0.6059,0.606,0.6061,0,0,0.6279,0.6249,0.6232,0.6214,0.6184,0.6147,0.6091,0.6048,0.602,0.599,0.5941,0.5875,0.5898,0.5871,0.5875,0.5834,0.5747,0.5863,0.5862,0.5838,0.564,0.5618,0.5601,0.5758,0.5755,0.5753,0.5641,0,0.6174,0.608,0.6088,0.5997,0.5952,0.5978,0.593,0.5905,0.5897,0.5856,0.5847,0.5799,0.5835,0.5819,0.5779,0.5766,0.5706,0.5775,0.5708,0.5705,0.5711,0.5582,0.5559,0.5454,0.5627,0.5625,0.5623,0,0.6038,0.6006,0.5911,0.5889,0.587,0.5827,0.5787,0.5749,0.5721,0.5718,0.569,0.5702,0.5643,0.5691,0.5608,0.5654,0.5628,0.5618,0.5614,0.5603,0.5655,0.5563,0.5421,0.5404,0.5601,0.5602,0.5604,0,0.5942,0.5876,0.581,0.5795,0.5768,0.5736,0.5723,0.5698,0.5671,0.5636,0.5618,0.5576,0.5552,0.5518,0.5516,0.5552,0.5432,0.548,0.5424,0.5424,0.5393,0.5394,0.524,0.5384,0.5385,0.5385,0.5385,0,0.5821,0.5761,0.5767,0.5726,0.5659,0.5669,0.5602,0.5592,0.557,0.5526,0.5547,0.5504,0.5507,0.5463,0.5462,0.5392,0.5382,0.5375,0.5375,0.5371,0.5371,0.535,0.5355,0.5381,0.5382,0.5382,0.5383,0,0.57,0.5703,0.5632,0.5614,0.5608,0.5559,0.5542,0.5502,0.5499,0.5442,0.5429,0.5422,0.5372,0.5369,0.531,0.5309,0.5223,0.5233,0.5233,0.5233,0.5176,0.5179,0.4998,0.4974,0.5139,0.5137,0.5136,0,0.562,0.5575,0.5553,0.5527,0.5512,0.5469,0.5443,0.5452,0.5423,0.5389,0.5352,0.5305,0.5267,0.5185,0.5172,0.5127,0.5133,0.5073,0.5125,0.5123,0.5127,0.5127,0.5121,0.506,0.5059,0.5057,0.5056,0,0.5477,0.5481,0.5444,0.5407,0.5376,0.5346,0.5319,0.5296,0.5301,0.5267,0.5218,0.5189,0.5131,0.5082,0.5039,0.5022,0.5038,0.5041,0.5025,0.5017,0.5017,0.5012,0.5199,0.5043,0.5044,0.5045,0.5046,0.5047,0.5371,0.5331,0.531,0.5268,0.525,0.5224,0.5186,0.5179,0.5139,0.5094,0.5102,0.5046,0.5019,0.4963,0.4943,0.4898,0.4918,0.4895,0.4889,0.4882,0.4874,0.503,0.4891,0.4891,0.4891,0.4892,0.4892,0,0.5225,0.5214,0.5175,0.5138,0.5104,0.5129,0.51,0.5069,0.502,0.4996,0.496,0.4902,0.4856,0.4841,0.4795,0.4762,0.4768,0.4749,0.4748,0.4744,0.4861,0.4877,0.4745,0.4745,0.4745,0.4745,0.4745,0.4745,0.5145,0.5079,0.5081,0.5005,0.4994,0.4942,0.4923,0.4899,0.4879,0.4815,0.4778,0.4771,0.4749,0.4703,0.466,0.4657,0.4637,0.4614,0.4613,0.4721,0.4736,0.475,0.4765,0.4611,0.4611,0.4499,0.4498,0.4498]}]]